AirNav   Duncan Aviation - Near you to keep you flying
 
 916 users online  

KNGU Norfolk Naval Station (Chambers Field)
Norfolk, Virginia, USA

GOING TO NORFOLK?


FAA INFORMATION EFFECTIVE 01 DECEMBER 2022

Location

FAA Identifier: NGU
Lat/Long: 36-56-14.8870N 076-17-21.4010W
36-56.248117N 076-17.356683W
36.9374686,-76.2892781
(estimated)
Elevation: 14.8 ft. / 4.5 m (surveyed)
Variation: 10W (1990)
Time zone: UTC -5 (UTC -4 during Daylight Saving Time)
Zip code: 23503

Airport Operations

Airport use: Private use. Permission required prior to landing
Activation date: 04/1943
Control tower: yes
ARTCC: WASHINGTON CENTER
FSS: LEESBURG FLIGHT SERVICE STATION
NOTAMs facility: NGU (NOTAM-D service available)
Attendance: CONTINUOUS
CLSD 0400Z FOURTH THU NOV - 1200Z FOURTH FRI NOV, CLSD 1900Z 24 DEC - 1200Z 26 DEC, CLSD 1900Z 31 DEC - 1200Z 2 JAN.
Segmented circle: no
Lights: AVBL ONLY DURING HRS OF OPERATION.
Beacon: white-white-green (lighted military airport)
Operates sunset to sunrise.

Airport Communications

ATIS: 118.425 342.0
CHAMBERS GROUND: 121.8 298.95 ;NAVY NORFOLK HELIN 370.85
CHAMBERS TOWER: 124.3 126.375 ;NAVY NORFOLK HELIN 290.5 ;NAVY NORFOLK HELIN 379.15
NORFOLK APPROACH: 118.9 ;010-310 125.7 ;311-009
NORFOLK DEPARTURE: 125.7 ;311-009
CLEARANCE DELIVERY: 120.7 339.8
AMC/ATOC: 130.65 349.5
BASE OPS: 134.1 268.8
EMERG: 121.5 243.0
PMSV METRO: 271.6
WX ASOS at ORF (5 nm SE): PHONE 757-460-9348
WX AWOS-3PT at PVG (12 nm SW): 118.375 (757-465-2175)
WX ASOS at NTU (14 nm SE): PHONE DSN 433-3619 or 757-433-3619
WX ASOS at PHF (15 nm NW): PHONE 757-874-3682
WX AWOS-3 at CPK (16 nm S): 123.675 (757-204-4290)
  • NOTIFY CHAMBERS OPNS ON FREQ 268.8 ON ALL VIP FLIGHTS 15 MIN PRIOR TO ARRIVAL.
  • ALL RADAR FREQUENCIES ARE ON REQUEST.

Nearby radio navigation aids

VOR radial/distance  VOR name  Freq  Var
ORFr310/5.1NORFOLK VORTAC116.9007W
CCVr220/28.3CAPE CHARLES VORTAC112.2010W
HCMr154/36.7HARCUM VORTAC108.8007W
FKNr078/37.2FRANKLIN VORTAC110.6009W

 
NDB name  Hdg/Dist  Freq  Var  ID
INGLE352/6.132909WOR --- .-.
WAKEFIELD106/34.227411WAKQ .- -.- --.-

Airport Services

Bottled oxygen: NONE
Bulk oxygen: HIGH/LOW

Runway Information

Runway 10/28

Dimensions: 8370 x 200 ft. / 2551 x 61 m
Surface: asphalt/grooved
Weight bearing capacity: 
PCN 56 /R/B/W/T
Runway edge lights: high intensity
RUNWAY 10  RUNWAY 28
Latitude: 36-56.247967N36-56.248162N
Longitude: 076-18.215905W076-16.497447W
Elevation: 13.2 ft.12.5 ft.
Traffic pattern: leftright
Runway heading: 100 magnetic, 090 true280 magnetic, 270 true
Displaced threshold: 299 ft.995 ft.
Declared distances: TORA:8370 LDA:8071TORA:8370 LDA:7375
Markings: precision, in good conditionprecision, in good condition
Visual slope indicator: 4-light PAPI on right (3.00 degrees glide path)4-light PAPI on right (3.00 degrees glide path)
Approach lights: ALSF2: standard 2,400 foot high intensity approach lighting system with centerline sequenced flashers (category II or III)
OLS RWY 10.
SSALF: simplified short approach lighting system with sequenced flashers
OLS RWY 28.
Runway end identifier lights: yesyes
Centerline lights: yesyes
Touchdown point: yes, lightedyes, lighted
Instrument approach: ILS/DME

Airport Ownership and Management from official FAA records

Ownership: U.S. Navy
Owner: U.S. NAVY
OCEANOGRAPHIC OFC-CODE 3142
WASHINGTON, DC 20373
Manager: COMMANDING OFFICER
NAVAL AIR STATION
NORFOLK, VA 23511

Additional Remarks

E60-28 HOOK E28 (B) (1062 FT).
E60-10 HOOK E28(B) (1500 FT).
AOE.
CAUTION: EXTV FISH SPOTTER ACFT ACT (SENG GENERAL AVIATION ACFT) UPWARDS FR 1500 FT OVER CHESAPEAKE BAY AND ADJ COASTAL WATERS. EXTV VFR TFC OPR W OF CHAMBERS CLASS D AND NORFOLK CLASS C AIRSPACE. BIRD HAZ.
TFC PAT: R TFC RWY 28. BASIC F/W/VFR MIN 1000 FT AND 3 NM.
NS ABTMT: NO PRACTICE APCH 0400-1200Z++ MON-SAT; 0400-1800Z++ SUN. OT BY NOTAM. NO COPTER OVFT WILLOUGHBY SPIT EXC VIA PT XRAY (CHAMBERS TACAN R-042/1.5 DME) OR PT YANKEE (CHAMBERS TACAN R-009/1.8 DME) AT 500 FT.
CSTMS/AG/IMG: CSTMS AVBL WITH 2 HR PN. AG AVBL 1300-2400Z++ MON-FRI. IMG AVBL 1300-2100Z++ MON-FRI. AG/IMG AVBL OT ON OVERTIME BASIS ONLY, PRIOR ARNG RQR.
MISC: RWY 10/28 GROOVED.
CAUTION: ARR/DEP TCAS EQUIPPED ACFT SHOULD EXPECT NUMEROUS TCAS ALERTS FROM SHIP TRANSPONDER HARBORED OR TRANSITING INTO/OUT OF THE CHESAPEAKE AND COASTAL WATERS.
ARR/DEP TCAS EQUIPED ACFT SHOULD EXPECT NUMEROUS TCAS ALERTS FROM SHIP TRANSPONDER OR TRANSMITTING INTO/OUT OF THE CHESAPEAKE AND COASTAL WATERS.
CAUTION - DO NOT MISTAKE NORFOLK INTL 5 NM SE FOR CHAMBERS FIELD, WHILE INBD ON TACAN/RNAV RWY 28 APCHS. CHAMBERS FIELD HAS A SINGLE RWY; NORFOLK INTL HAS INTERSECTING RWYS.
RSTD - PPR FOR NON CHAMBERS FIELD BASED ACFT. DSN 262-3419/3429 C757-322-3419/3429.
AMC/ATOC DSN 564-4735/3922, C757-444-4735/3922. ACFT UTILIZING AMC TRML CTC ATOC/AMC TRML 15 MIN PRIOR ARR WITH LOAD RPT. ACFT OVERSEAS CTC AMC/ATOC VIA FONE PATCH 2 HR PRIOR ARR FOR CSTM. ALL OTHER ACFT, CTC BASE OPS 15 MIN PRIR ARR.
MISC- FLT PLANS FOR NS NORFOLK, CHAMBERS FLD, AND NAS OCEANA SHOULD BE FAXED TO DSN 565-9680, C757-445-9680, OR EMAILED TO KNGU.FLTPLNG.FCT@NAVY.MIL. TO CFM RECEIPT OF FLT PLANS CALL NS NORFOLK, CHAMBERS FLD FLT PLANNING SUPERVISOR AT DSN 262-3419/3429, C757-322-3419/3429.
CAUTION - RWY 28 MULTIPLE CRANES 1.2 NM TO 1.3 NM FM DER 1600 FT L TO 4000 FT R OF CNTRLN, 260 FT MSL.
FOR CIVIL ACFT LNDG PERMIT (CALP) INFO CTC AFLD MGR C757-322-3419/3429.
ILS/TACAN/RADAR - ILS OR LOC/DME RWY 10 - BC UNUSED. ILS AND TACAN NO NOTAM MP WED 1230-1630Z++. RADAR - SEE TERMINAL FLIP FOR RADAR MINIMA.
A-GEAR: AVOID CNTRLN LGT RWY 10/28 DUR CABLE ENGAGEMENT TO PREVENT TAILHOOK SKIP. DIST RWY 28 MEASURED FR DISPL THR. E-28(B) IN RAISED POSN AT DEP END OF RWY NMLLY. SHORTFLD GEAR AVBL WITH 20 MIN PN.
JASU:(NC-10C) (NC-8A/A1) (NCPP-105 CTC AIR OPS DUTY OFFICER TO ENSURE AVBL).
FUEL: NO TRAN COPTER HOT PIT WO PRIOR COORD WITH HOST SQUADRON. J5.
FLUID: ADI SP PRESAIR LHOX LOX.
OIL: UNAVBL.
TRAN ALERT: LTD TRAN MAINT AVBL WKEND ONLY 1200-2000Z++. TRAN MAINT UNAVBL OT. 2 HR PN RQR FOR LOX. LAVATORY SVC UNAVBL FOR C-130 ACFT. POTABLE WATER UNAVBL. NO TRAN WORK/MSN PLANNING/BRIEFING SPACES OR COMSEC STOR FOR DETS.
RSTD: TWY B CLSD S OF TWY F AND TWY D CLSD E OF TWY S UFN.

Instrument Procedures

NOTE: All procedures below are presented as PDF files. If you need a reader for these files, you should download the free Adobe Reader.

NOT FOR NAVIGATION. Please procure official charts for flight.
FAA instrument procedures published for use from 01 December 2022 at 0901Z to 29 December 2022 at 0900z.

 
STARs - Standard Terminal Arrivals
DRONE TWO   2 pages: [1] [2] (287KB)
TERKS TWO **CHANGED**   download (183KB)
 
IAPs - Instrument Approach Procedures
ILS OR LOC/DME RWY 10   download (176KB)
RNAV (GPS) RWY 10   download (169KB)
RNAV (GPS) RWY 28   download (176KB)
HI-TACAN RWY 10   download (213KB)
HI-TACAN RWY 28   download (217KB)
TACAN RWY 10   download (161KB)
TACAN RWY 28   download (160KB)
Radar Approach Procedures available   download (160KB)
 
CHAMBERS ONE (OBSTACLE)   2 pages: [1] [2] (240KB)
NOTE: Special Take-Off Minimums/Departure Procedures apply   download (379KB)

Other nearby airports with instrument procedures:

KNHU - Norfolk Naval Station Airport (1 nm NW)
KORF - Norfolk International Airport (5 nm SE)
KLFI - Langley Air Force Base (9 nm N)
KPVG - Hampton Roads Executive Airport (12 nm SW)
KNTU - Oceana Naval Air Station (Apollo Soucek Field) (14 nm SE)
KPHF - Newport News/Williamsburg International Airport (15 nm NW)
KCPK - Chesapeake Regional Airport (16 nm S)
KFAF - Felker Army Airfield (19 nm NW)
 
Loc | Ops | Rwys | IFR | FBO | Links
Com | Nav | Svcs | Stats | Notes
Area around KNGU (Norfolk Naval Station (Chambers Field))
 
Road maps at: MapQuest Bing Google
 
Aerial photo
WARNING: Photo may not be current or correct
Aerial photo of KNGU (Norfolk Naval Station (Chambers Field))
Photo by David Newcomer
Photo taken 10-Sep-2019
looking southeast from 5,000'.

Do you have a better or more recent aerial photo of Norfolk Naval Station (Chambers Field) that you would like to share? If so, please send us your photo.

 
Sectional chart

 
Airport diagram
Diagram of KNGU (Norfolk Naval Station (Chambers Field))
Download PDF
of official airport diagram from the FAA

 
Airport distance calculator
Flying to Norfolk Naval Station (Chambers Field)? Find the distance to fly.

From to KNGU

Sunrise and sunset
Times for 02-Dec-2022
 Local
(UTC-5)
 Zulu
(UTC)
Morning civil twilight06:3311:33
Sunrise07:0212:02
Sunset16:4821:48
Evening civil twilight17:1622:16

Current date and time
Zulu (UTC)  03-Dec-2022 00:48:04
Local (UTC-5)  02-Dec-2022 19:48:04
 
METAR
KNGU 
2nm SE 
022359Z 16007KT 10SM BKN045 BKN200 12/05 A3049 RMK AO2 SLP326 T01170050 10139 20100 50007 $
KORF 
5nm SE 
022351Z 16010KT 10SM OVC045 11/04 A3049 RMK AO2 SLP323 T01110044 10139 20106 51008
KLFI 
9nm NW 
022355Z AUTO 17005KT 10SM CLR 07/05 A3047 RMK AO2 SLP325 T00740052 10130 20067 50005 $
KPVG 
12nm SW 
022356Z AUTO 17005KT 10SM OVC046 11/04 A3050 RMK AO2 SLP329 6//// T01060044 10144 20067 51008 PNO $
KNTU 
15nm SE 
022356Z 19005KT 10SM BKN045 BKN120 10/06 A3049 RMK AO2 SLP328 T01000061 10133 20094 53009
KPHF 
15nm NW 
022354Z 10003KT 10SM CLR 04/02 A3048 RMK AO2 SLP320 T00390017 10122 20039 50002
KCPK 
16nm S 
030035Z AUTO 15004KT 10SM OVC050 10/04 A3049 RMK AO2 T00980037
KNFE 
16nm SE 
022356Z AUTO 18003KT 10SM OVC046 11/04 A3051 RMK AO2 SLP332 T01060044 10150 20094 53009 PWINO
KFAF 
19nm NW 
022355Z 17006KT 10SM CLR 09/02 A3044 RMK AO2A SLP312 T00860022 10125 20054 50001 RVRNO $
TAF
KNGU 
2nm SE 
0223/0323 VRB04KT 9999 SCT040 BKN250 QNH3040INS TEMPO 0223/0303 BKN040 BKN250 FM030300 18007KT 9999 BKN040 BKN200 QNH3030INS FM031300 20011KT 8000 -SHRA BR BKN030 OVC100 QNH3013INS TEMPO 0315/0321 21014G22KT 3200 SHRA BR BKN020 OVC050 FM032100 27011KT 9999 VCSH SCT020 BKN050 QNH3015INS T10/0303Z T20/0319Z FN20004
KORF 
5nm SE 
021720Z 0218/0318 17006KT P6SM SKC FM031000 19007KT P6SM BKN120 FM031500 20014G22KT P6SM BKN090
KLFI 
9nm NW 
022000Z 0220/0324 19012KT 9999 FEW200 QNH3051INS BECMG 0302/0303 19012KT 9999 SCT020 BKN040 QNH3045INS BECMG 0308/0309 20012KT 9000 -DZ BKN020 OVC035 QNH3037INS TEMPO 0314/0320 20015G25KT 6000 -SHRA BKN007 OVC015 BECMG 0320/0321 22012KT 9999 NSW BKN010 OVC015 QNH3019INS TX17/0318Z TN07/0301Z LAST NO AMDS AFT 0220 NEXT 0309
KNTU 
15nm SE 
0223/0323 18010KT 9999 SCT040 SCT120 BKN250 QNH3036INS TEMPO 0223/0302 BKN030 BECMG 0307/0309 19012KT 9999 BKN025 BKN120 QNH3033INS BECMG 0316/0318 20012KT 8000 -SHRA BR BKN020 OVC080 QNH3011INS T08/0217Z T18/0318Z FN20099
KPHF 
15nm NW 
021720Z 0218/0318 20012KT P6SM SKC FM022300 17005KT P6SM SCT150 FM030500 19006KT P6SM BKN150 FM031000 19007KT P6SM BKN100 WS020/21040KT FM031500 20011G20KT 6SM -SHRA BR OVC070
KFAF 
19nm NW 
021900Z 0219/0401 VRB06KT 9999 SCT150 QNH3044INS BECMG 0301/0302 VRB06KT 9999 SCT040 BKN100 QNH3027INS BECMG 0313/0314 20012G18KT 8000 -SHRA BKN035 OVC090 QNH3015INS BECMG 0319/0320 22012KT 9999 NSW OVC025 QNH3014INS BECMG 0322/0323 23009KT 9999 BKN015 OVC070 QNH3016INS TX17/0319Z TN07/0301Z
NOTAMs
Click for the latest NOTAMs
NOTAMs are issued by the DoD/FAA and will open in a separate window not controlled by AirNav.

 

 
 

Would you like to see your business listed on this page?

 If your business provides an interesting product or service to pilots, flight crews, aircraft, or users of the Norfolk Naval Station (Chambers Field), you should consider listing it here.  To start the listing process, click on the button below
 
Add a business
 

Other Pages about Norfolk Naval Station (Chambers Field)

Update a link
 
Copyright © AirNav, LLC. All rights reserved. Privacy Policy  Contact